Volver al catálogo

TIANYI-26

ActivoCienciaSSO
NORAD 56866·PAYLOAD·🇨🇳 China
Este nombre de satélite aún no ha sido confirmado por fuentes oficiales.

Lanzado Jun 7, 2023 desde Jiuquan Satellite Launch Center

Loading…

Próximos Pases (próximas 24 horas)

TLE

ActualizadoSource: Space-Track

Época: Sep 14, 2026, 14:47 UTC

1 56866U 23081W   26257.61618415  .00005416  00000-0  21412-3 0  9998
2 56866  97.2805 318.8204 0011836  61.3154 298.9273 15.25830028181665

Sigue TIANYI-26 en tiempo real con AllMySat

Download on the App Store